E8826 Weather Reports


time (UTC)temp
F
wind
direction
speed
knots
gust
knots
rain 1hr
in
rain 24hr
in
rain mn
in
humidity
%
barometer
mb
20260506184431 50 31 6.1 11.3 0.00 0.00 0.00 81 1012.2
20260506183432 51 33 5.2 9.6 0.00 0.00 0.00 79 1012.0
20260506182433 51 321 4.3 12.2 0.00 0.00 0.00 77 1011.9
20260506181431 52 31 5.2 12.2 0.00 0.00 0.00 75 1011.8
20260506180431 52 41 3.5 13.9 0.00 0.00 0.00 73 1011.6
20260506175920 53 26 6.1 14.8 0.00 0.00 0.00 72 1011.6
20260506174432 54 41 4.3 13.9 0.00 0.00 0.00 71 1011.5
20260506173921 54 48 3.5 14.8 0.00 0.00 0.00 71 1011.3
20260506172434 55 10 7.0 12.2 0.00 0.00 0.00 68 1011.2
20260506171913 55 34 5.2 11.3 0.00 0.00 0.00 66 1011.2
20260506170916 56 33 6.1 13.9 0.00 0.00 0.00 65 1011.1
20260506165433 56 57 8.7 14.8 0.00 0.00 0.00 65 1011.0
20260506164431 57 40 6.1 13.9 0.00 0.00 0.00 64 1011.1
20260506163429 57 41 5.2 16.5 0.00 0.00 0.00 63 1011.1
20260506162428 57 30 8.7 16.5 0.00 0.00 0.00 62 1011.1
20260506161429 57 74 5.2 14.8 0.00 0.00 0.00 64 1011.1
20260506160428 56 34 8.7 14.8 0.00 0.00 0.00 67 1011.1
20260506155425 55 34 7.0 14.8 0.00 0.00 0.00 67 1010.9
20260506154424 0 67 7.0 16.5 0.00 0.00 0.00 1010.9
20260506153421 0 24 7.0 14.8 0.00 0.00 0.00 1010.9
20260506152423 58 33 8.7 15.6 0.00 0.00 0.00 68 1011.0
20260506151418 57 51 7.8 14.8 0.00 0.00 0.00 68 1010.8
20260506150418 0 51 7.0 13.9 0.00 0.00 0.00 1010.8
20260506145418 57 34 8.7 13.9 0.00 0.00 0.00 68 1010.8
20260506144418 59 27 8.7 13.9 0.00 0.00 0.00 67 1010.7
20260506143416 60 55 9.6 16.5 0.00 0.00 0.00 65 1010.7
20260506142417 60 44 8.7 14.8 0.00 0.00 0.00 67 1010.6
20260506141413 59 38 9.6 16.5 0.00 0.00 0.00 69 1010.6
20260506140410 58 30 7.8 14.8 0.00 0.00 0.00 71 1010.7
20260506135410 57 36 7.0 16.5 0.00 0.00 0.00 69 1010.7
20260506134847 59 34 7.0 16.5 0.00 0.00 0.00 68 1010.6
20260506133407 59 31 8.7 16.5 0.00 0.00 0.00 67 1010.4
20260506132409 59 33 10.4 15.6 0.00 0.00 0.00 68 1010.6
20260506131407 59 54 7.8 14.8 0.00 0.00 0.00 68 1010.5
20260506130408 58 37 8.7 18.2 0.00 0.00 0.00 68 1010.4
20260506124406 59 43 7.0 17.4 0.00 0.00 0.00 65 1010.3
20260506123406 60 65 6.1 18.2 0.00 0.00 0.00 65 1010.3
20260506122405 60 69 9.6 18.2 0.00 0.00 0.00 63 1010.3
20260506121850 60 7 7.8 17.4 0.00 0.00 0.00 66 1010.3
20260506120407 60 34 9.6 19.1 0.00 0.00 0.00 66 1010.1
20260506115413 60 26 8.7 14.8 0.00 0.00 0.00 67 1010.2
20260506114403 59 57 7.0 15.6 0.00 0.00 0.00 65 1010.2
20260506112406 58 60 8.7 14.8 0.00 0.00 0.00 67 1010.1
20260506111404 58 17 6.1 16.5 0.00 0.00 0.00 68 1010.1
20260506110405 59 36 7.8 13.0 0.00 0.00 0.00 68 1010.1
20260506105405 60 43 6.1 15.6 0.00 0.00 0.00 65 1010.0
20260506104403 61 78 7.8 13.9 0.00 0.00 0.00 69 1010.1
20260506103404 59 82 5.2 13.9 0.00 0.00 0.00 63 1010.1
20260506102407 59 14 10.4 19.1 0.00 0.00 0.00 68 1009.9
20260506101405 59 16 8.7 14.8 0.00 0.00 0.00 71 1010.0
20260506100403 58 38 5.2 13.0 0.00 0.00 0.00 71 1010.0
20260506095403 58 38 5.2 11.3 0.00 0.00 0.00 74 1009.9
20260506094403 56 43 6.1 11.3 0.00 0.00 0.00 71 1009.9
20260506093402 57 38 8.7 16.5 0.00 0.00 0.00 73 1009.8
20260506092402 57 65 6.1 17.4 0.00 0.00 0.00 72 1009.8
20260506091847 57 72 6.1 13.0 0.00 0.00 0.00 71 1009.8
20260506090410 58 27 5.2 13.0 0.00 0.00 0.00 74 1009.7
20260506085400 56 43 7.0 16.5 0.00 0.00 0.00 73 1009.9
20260506084359 56 27 7.8 15.6 0.00 0.00 0.00 73 1009.8
20260506083400 55 24 4.3 15.6 0.00 0.00 0.00 73 1009.7
20260506082834 55 54 7.8 13.9 0.00 0.00 0.00 75 1009.7
20260506081359 55 64 5.2 13.9 0.00 0.00 0.00 77 1009.6
20260506080356 55 51 7.8 14.8 0.00 0.00 0.00 79 1009.6
20260506073358 54 16 7.8 12.2 0.00 0.00 0.00 83 1009.5
20260506072409 53 62 5.2 10.4 0.00 0.00 0.00 84 1009.5
20260506071357 53 33 5.2 12.2 0.00 0.00 0.00 85 1009.6
20260506070357 52 37 7.8 13.9 0.00 0.00 0.00 86 1009.5
20260506062229 50 27 5.2 11.3 0.00 0.00 0.00 92 1009.3
20260506060751 50 40 5.2 10.4 0.00 0.00 0.00 92 1009.3
20260506051234 48 303 3.5 8.7 0.00 0.00 0.00 90 1009.2
20260506044223 48 40 5.2 10.4 0.00 0.00 0.00 90 1009.3
20260506043224 48 27 3.5 8.7 0.00 0.00 0.00 89 1009.3
20260506042223 48 29 3.5 11.3 0.00 0.00 0.00 89 1009.3
20260506041223 48 31 5.2 9.6 0.00 0.00 0.00 89 1009.4
20260506035745 49 47 4.3 8.7 0.00 0.00 0.00 89 1009.3
20260506034743 49 26 3.5 10.4 0.00 0.00 0.00 89 1009.3
20260506033745 49 20 5.2 8.7 0.00 0.00 0.00 89 1009.4
20260506032743 49 43 4.3 12.2 0.00 0.00 0.00 89 1009.4
20260506032219 49 37 5.2 10.4 0.00 0.00 0.00 89 1009.5
20260506030740 49 26 4.3 10.4 0.00 0.00 0.00 89 1009.5
20260506030219 49 64 5.2 10.4 0.00 0.00 0.00 89 1009.6
20260506024740 49 43 5.2 11.3 0.00 0.00 0.00 89 1009.7
20260506024220 49 16 2.6 11.3 0.00 0.00 0.00 89 1009.8
20260506022739 49 33 5.2 10.4 0.00 0.00 0.00 89 1009.8
20260506021740 49 37 5.2 10.4 0.00 0.00 0.00 89 1009.9
20260506020740 49 30 4.3 10.4 0.00 0.00 0.00 89 1009.9
20260506015735 49 43 3.5 8.7 0.00 0.00 0.00 89 1010.0
20260506015211 49 17 7.0 11.3 0.00 0.00 0.00 89 1009.9
20260506013737 49 33 5.2 9.6 0.00 0.00 0.00 89 1010.0
20260506012734 49 36 3.5 8.7 0.00 0.00 0.00 89 1010.1
20260506011734 49 46 3.5 10.4 0.00 0.00 0.00 89 1010.1
20260506010736 49 31 5.2 9.6 0.00 0.00 0.00 89 1010.2
20260506005734 49 16 3.5 10.4 0.00 0.00 0.00 89 1010.4
20260506005210 49 31 3.5 10.4 0.00 0.00 0.00 88 1010.3
20260506003735 49 48 2.6 8.7 0.00 0.00 0.00 88 1010.4
20260506002734 49 320 5.2 12.2 0.00 0.00 0.00 88 1010.4
20260506001735 49 55 3.5 8.7 0.00 0.00 0.00 88 1010.4
20260506000734 49 24 4.3 9.6 0.00 0.00 0.00 88 1010.5
20260505235733 49 29 4.3 9.6 0.00 0.00 0.00 88 1010.6
20260505234733 49 27 3.5 10.4 0.00 0.00 0.00 88 1010.7
20260505233731 49 24 4.3 8.7 0.00 0.00 0.00 88 1010.7
20260505232732 49 26 4.3 9.6 0.00 0.00 0.00 88 1010.8
20260505231732 49 33 4.3 10.4 0.00 0.00 0.00 88 1010.9
20260505230732 49 26 6.1 10.4 0.00 0.00 0.00 88 1011.0
20260505225730 49 53 5.2 11.3 0.00 0.00 0.00 88 1010.9
20260505224728 49 36 5.2 10.4 0.00 0.00 0.00 88 1011.0
20260505224212 49 359 5.2 10.4 0.00 0.00 0.00 88 1011.1
20260505222729 49 29 2.6 8.7 0.00 0.00 0.00 87 1011.2
20260505221728 49 71 3.5 7.8 0.00 0.00 0.00 87 1011.2
20260505221147 49 16 4.3 7.8 0.00 0.00 0.00 87 1011.2
20260505215725 49 40 3.5 6.1 0.00 0.00 0.00 87 1011.3
20260505214724 49 12 3.5 9.6 0.00 0.00 0.00 86 1011.5
20260505213722 49 41 4.3 6.1 0.00 0.00 0.00 86 1011.4
20260505213204 49 47 3.5 6.1 0.00 0.00 0.00 86 1011.4
20260505211721 49 41 4.3 6.1 0.00 0.00 0.00 85 1011.5
20260505210827 49 17 1.7 7.8 0.00 0.00 0.00 85 1011.6
20260505205824 49 26 4.3 7.8 0.00 0.00 0.00 85 1011.6
20260505205308 50 40 3.5 6.1 0.00 0.00 0.00 84 1011.6
20260505203823 50 30 3.5 7.8 0.00 0.00 0.00 84 1011.6
20260505202824 50 10 5.2 7.8 0.00 0.00 0.00 83 1011.7
20260505201823 50 30 4.3 8.7 0.00 0.00 0.00 82 1011.6
20260505200823 50 31 5.2 9.6 0.00 0.00 0.00 81 1011.6
20260505195824 51 31 5.2 8.7 0.00 0.00 0.00 81 1011.6
20260505194822 51 41 4.3 8.7 0.00 0.00 0.00 80 1011.5
20260505193822 51 38 4.3 8.7 0.00 0.00 0.00 80 1011.5
20260505192818 51 33 4.3 11.3 0.00 0.00 0.00 79 1011.4
20260505191820 51 26 4.3 12.2 0.00 0.00 0.00 79 1011.3
20260505190820 51 37 3.5 11.3 0.00 0.00 0.00 78 1011.4
20260505185817 52 38 6.1 10.4 0.00 0.00 0.00 78 1011.4
20260505185236 52 22 6.1 10.4 0.00 0.00 0.00 78 1011.3